Regional Weather Roundup
Issued by NWS State College, PA

Home | Current Version | Previous Version | Text Only | Print | Product List | Glossary On
Versions: 1 2 3 4 5 6 7 8 9 10 11 12 13 14 15 16 17 18 19 20 21 22 23 24 25 26 27 28 29 30 31 32 33 34 35 36 37 38 39 40 41 42 43 44 45 46 47 48 49 50
000
ASUS41 KCTP 172010
RWRCTP

REGIONAL WEATHER ROUNDUP
NATIONAL WEATHER SERVICE STATE COLLEGE PA
400 PM EDT WED SEP 17 2014

Note: "fair" indicates few or no clouds below 12,000 feet with no
significant weather and/or obstructions to visibility.

* = STATION THAT DOES NOT REPORT PRECIPITATION /E.G. RAIN...SNOW...ETC/
    THUNDER OR FOG.

PAZ002>004-007>009-013>016-020>023-029>032-172100-
WESTERN PENNSYLVANIA

CITY           SKY/WX    TMP DP  RH WIND       PRES   REMARKS
ERIE           SUNNY     67  48  50 W10       29.99S
MEADVILLE      PTSUNNY   66  46  48 W8        30.00F
FRANKLIN*      PTSUNNY   63  45  51 W5        30.01S
NEW CASTLE     FAIR      68  46  45 CALM      30.00F
BEAVER COUNTY  MOSUNNY   66  46  48 CALM      30.00S
BUTLER*        SUNNY     68  46  45 SW6       30.01S
PITTSBURGH INT PTSUNNY   67  46  47 W7        29.98F
PITTSBURGH     PTSUNNY   68  47  46 VRB3      29.98F
INDIANA*       PTSUNNY   68  48  49 W7        30.02F
LATROBE        PTSUNNY   68  50  52 W7        29.99F
WASHINGTON CO* PTSUNNY   70  50  49 W6        29.99F
$$

PAZ004>006-010>012-017>019-024>028-033>037-041-042-045-046-049>053-172100-
CENTRAL PENNSYLVANIA

CITY           SKY/WX    TMP DP  RH WIND       PRES   REMARKS
BRADFORD       MOSUNNY   63  40  42 W7        30.00S
DUBOIS         MOSUNNY   64  45  49 W8        29.99S
CLEARFIELD     MOSUNNY   68  46  45 SW9       29.99S
JOHNSTOWN      MOSUNNY   64  43  46 W6        29.99F
ALTOONA        MOSUNNY   72  46  39 S3        29.99F
STATE COLLEGE  PTSUNNY   66  48  52 SW7       29.98F
WILLIAMSPORT   MOSUNNY   72  42  34 W9        29.96F
SELINSGROVE    CLOUDY    70  46  42 VRB3      29.98F
FT INDIANTOWN  MOSUNNY   71  46  40 VRB6      29.98S
CAPITAL CITY   SUNNY     72  42  34 W6        29.97F
HARRISBURG     MOSUNNY   72  43  35 VRB6      29.96F
YORK           CLOUDY    71  46  40 SW5       29.97F
$$

PAZ038>040-043-044-047-048-054-055-060>062-067>071-172100-
EASTERN PENNSYLVANIA

CITY           SKY/WX    TMP DP  RH WIND       PRES   REMARKS
SCRANTON       SUNNY     67  42  40 SW6       29.97F
MOUNT POCONO   PTSUNNY   65  41  41 W13       29.99F
ALLENTOWN      MOSUNNY   72  43  35 W8        29.97F
QUAKERTOWN*    MOCLDY    72  46  40 W6        29.98F
READING        PTSUNNY   71  45  39 W6        29.96F
LANCASTER      PTSUNNY   71  45  39 SW5       29.97F
COATESVILLE    CLOUDY    70  48  46 W3        29.99S
POTTSTOWN      CLOUDY    71  48  43 MISG      29.99S
BLUE BELL      PTSUNNY   73  46  38 CALM      29.96S
DOYLESTOWN     PTSUNNY   69  46  43 NW3       29.97F
WILLOW GROVE   NOT AVBL
NORTH PHILA    MOSUNNY   75  41  29 VRB3      29.98F
PHILADELPHIA   MOSUNNY   74  46  36 W6        29.97F
$$


USA.gov is the U.S. government's official web portal to all federal, state and local government web resources and services.